TimeCST,TemperatureF,Dew PointF,Humidity,Sea Level PressureIn,VisibilityMPH,Wind Direction,Wind SpeedMPH,Gust SpeedMPH,PrecipitationIn,Events,Conditions,WindDirDegrees,DateUTC
12:53 AM,45.0,32.0,60,29.84,10.0,South,12.7,23.0,N/A,,Clear,180,2013-02-18 06:53:00
1:53 AM,45.0,33.1,63,29.82,10.0,South,13.8,-,N/A,,Clear,180,2013-02-18 07:53:00
2:53 AM,46.0,33.1,61,29.80,10.0,South,18.4,28.8,N/A,,Clear,170,2013-02-18 08:53:00
3:53 AM,45.0,33.1,63,29.78,10.0,South,16.1,24.2,N/A,,Clear,180,2013-02-18 09:53:00
4:53 AM,45.0,34.0,65,29.76,10.0,South,15.0,24.2,N/A,,Clear,170,2013-02-18 10:53:00
5:53 AM,46.0,35.1,66,29.75,10.0,South,19.6,26.5,N/A,,Clear,170,2013-02-18 11:53:00
6:53 AM,46.0,36.0,68,29.74,10.0,South,17.3,27.6,N/A,,Clear,180,2013-02-18 12:53:00
7:53 AM,46.4,37.4,71,29.72,10.0,South,18.4,33.4,N/A,,Clear,180,2013-02-18 13:53:00
8:53 AM,48.9,39.9,71,29.73,10.0,South,18.4,34.5,N/A,,Partly Cloudy,180,2013-02-18 14:53:00
9:53 AM,51.1,42.1,71,29.71,10.0,South,21.9,27.6,N/A,,Overcast,180,2013-02-18 15:53:00
10:53 AM,51.1,43.0,74,29.70,10.0,South,23.0,34.5,N/A,,Overcast,180,2013-02-18 16:53:00
11:53 AM,52.0,44.1,74,29.68,10.0,South,21.9,32.2,N/A,,Overcast,180,2013-02-18 17:53:00
12:53 PM,50.0,44.1,80,29.65,10.0,South,20.7,32.2,N/A,,Overcast,170,2013-02-18 18:53:00
1:34 PM,48.2,44.6,87,29.61,10.0,South,20.7,24.2,0.00,Rain,Light Rain,170,2013-02-18 19:34:00
1:53 PM,50.0,46.0,86,29.59,10.0,South,17.3,26.5,0.00,,Overcast,170,2013-02-18 19:53:00
2:53 PM,50.0,46.0,86,29.55,10.0,South,20.7,29.9,0.00,Rain,Light Rain,170,2013-02-18 20:53:00
3:41 PM,50.0,46.4,87,29.54,10.0,South,19.6,25.3,0.02,Rain,Light Rain,180,2013-02-18 21:41:00
3:53 PM,50.0,46.9,89,29.54,10.0,South,16.1,27.6,0.02,,Overcast,190,2013-02-18 21:53:00
4:18 PM,50.0,46.4,87,29.55,3.0,SSW,12.7,19.6,0.05,Rain,Rain,210,2013-02-18 22:18:00
4:33 PM,48.2,48.2,100,29.54,7.0,SSW,12.7,-,0.07,Rain,Light Rain,200,2013-02-18 22:33:00
4:53 PM,50.0,48.0,93,29.59,8.0,West,13.8,-,0.07,Rain,Light Rain,280,2013-02-18 22:53:00
5:02 PM,48.2,46.4,93,29.60,8.0,WNW,19.6,24.2,0.00,Rain,Light Rain,290,2013-02-18 23:02:00
5:09 PM,48.2,44.6,87,29.61,6.0,WNW,20.7,31.1,0.01,Rain,Light Rain,290,2013-02-18 23:09:00
5:53 PM,39.9,37.9,93,29.69,10.0,WNW,17.3,27.6,0.01,,Overcast,300,2013-02-18 23:53:00
6:33 PM,39.2,35.6,87,29.73,10.0,WNW,24.2,33.4,N/A,,Overcast,300,2013-02-19 00:33:00
6:53 PM,39.0,34.0,82,29.76,10.0,NW,21.9,29.9,N/A,,Overcast,320,2013-02-19 00:53:00
7:53 PM,37.9,34.0,86,29.80,10.0,WNW,23.0,32.2,N/A,,Overcast,290,2013-02-19 01:53:00
8:53 PM,34.0,28.9,82,29.87,10.0,WNW,20.7,29.9,N/A,,Overcast,300,2013-02-19 02:53:00
9:05 PM,33.8,28.4,81,29.87,10.0,WNW,18.4,28.8,N/A,,Overcast,300,2013-02-19 03:05:00
9:53 PM,32.0,24.1,73,29.92,10.0,WNW,25.3,40.3,N/A,,Overcast,290,2013-02-19 03:53:00
10:53 PM,30.0,23.0,75,29.94,10.0,WNW,15.0,23.0,N/A,,Overcast,290,2013-02-19 04:53:00
11:44 PM,28.4,19.4,69,29.95,10.0,WNW,20.7,27.6,N/A,,Partly Cloudy,290,2013-02-19 05:44:00
11:53 PM,28.9,21.0,72,29.98,10.0,West,21.9,27.6,N/A,,Partly Cloudy,280,2013-02-19 05:53:00